Waarnemingen

Advertentie
Mijn weer
Carcassonne, Frankrijk (7635): temperatuur & dauwpunt: 15.06.2018 02:00:00 - 21.06.2018 02:00:00 (CEST)Carcassonne, Frankrijk (7635): temperatuur 5cm: 15.06.2018 02:00:00 - 21.06.2018 02:00:00 (CEST)Carcassonne, Frankrijk (7635): temperatuur -20cm & temperatuur -100cm: 15.06.2018 02:00:00 - 21.06.2018 02:00:00 (CEST)Carcassonne, Frankrijk (7635): windsnelheid & windstoten: 15.06.2018 02:00:00 - 21.06.2018 02:00:00 (CEST)Carcassonne, Frankrijk (7635): windrichting: 15.06.2018 02:00:00 - 21.06.2018 02:00:00 (CEST)Carcassonne, Frankrijk (7635): luchtdruk: 15.06.2018 02:00:00 - 21.06.2018 02:00:00 (CEST)Carcassonne, Frankrijk (7635): zicht: 15.06.2018 02:00:00 - 21.06.2018 02:00:00 (CEST)Carcassonne, Frankrijk (7635): Zonneschijnduur: 15.06.2018 02:00:00 - 21.06.2018 02:00:00 (CEST)Carcassonne, Frankrijk (7635): neerslag: 15.06.2018 02:00:00 - 21.06.2018 02:00:00 (CEST)
Datum & Tijd tt [°C] td [°C] tt 5cm [°C] tt -20cm [°C] tt -100cm [°C] ff [km/u] ff [kn] fx [km/u] fx [kn] dd ppp [hPa] vv [km] sd [min] rr [mm]
21.06.2018 02:00:00 19,0 15,7 16,1 24,3 19,0 3 2 14 8 Z 1018,7 44 0 0,0
21.06.2018 01:00:00 21,9 16,0 20,7 24,6 19,0 8 4 23 13 OZO 1018,4 59 0 0,0
21.06.2018 00:00:00 22,2 15,1 19,7 24,9 19,0 7 4 21 11 OZO 1018,6 60 0 0,0
20.06.2018 23:00:00 22,3 13,6 20,2 25,2 19,0 10 5 23 12 ONO 1018,6 60 0 0,0
20.06.2018 22:00:00 24,3 14,4 22,9 25,3 19,0 15 8 27 14 ONO 1017,7 60 5 0,0
20.06.2018 21:00:00 26,8 14,2 26,7 25,6 19,0 19 11 32 17 ONO 1017,0 54 60 0,0
20.06.2018 20:00:00 28,5 15,1 28,7 25,6 18,9 22 12 38 20 O 1016,9 60 60 0,0
20.06.2018 19:00:00 29,8 16,2 33,4 25,5 19,0 22 12 38 20 ONO 1016,5 60 60 0,0
20.06.2018 18:00:00 30,6 16,2 34,3 25,2 18,9 25 13 41 22 ONO 1016,6 20 60 0,0
20.06.2018 17:00:00 30,9 16,5 35,2 24,8 18,9 26 14 45 24 O 1016,8 50 60 0,0
20.06.2018 16:00:00 31,1 16,3 35,4 24,2 18,9 24 13 38 21 O 1016,8 49 60 0,0
20.06.2018 15:00:00 30,9 16,5 35,5 23,6 18,9 24 13 41 22 O 1017,1 58 60 0,0
20.06.2018 14:00:00 30,6 15,8 35,1 23,1 18,9 24 13 42 23 O 1017,4 59 60 0,0
20.06.2018 13:00:00 30,1 16,1 33,9 22,5 18,9 26 14 42 23 O 1017,8 60 60 0,0
20.06.2018 12:00:00 29,3 17,2 32,0 22,1 18,9 20 11 37 20 O 1018,2 60 60 0,0
20.06.2018 11:00:00 27,6 17,2 30,4 21,7 18,9 17 9 30 16 O 1018,5 60 60 0,0
20.06.2018 10:00:00 24,6 16,8 26,7 21,6 18,8 11 6 21 11 O 1018,8 60 60 0,0
20.06.2018 09:00:00 21,6 16,1 23,2 21,6 18,9 3 2 7 4 N 1019,2 53 60 0,0
20.06.2018 08:00:00 18,9 16,1 15,8 21,8 18,8 2 1 8 5 ZZO 1019,4 44 60 0,0
20.06.2018 07:00:00 15,6 14,8 12,1 22,0 18,8 3 2 9 5 ZZW 1019,3 22 24 0,0
20.06.2018 06:00:00 14,5 13,2 12,0 22,3 18,8 0 0 8 4 N 1019,2 20 0 0,0
20.06.2018 05:00:00 15,7 14,2 13,5 22,6 18,8 5 3 9 5 Z 1019,2 59 0 0,0
20.06.2018 04:00:00 16,3 14,7 13,6 22,8 18,8 5 3 11 6 ZZW 1019,3 30 0 0,0
20.06.2018 03:00:00 17,0 14,5 14,8 23,1 18,8 3 2 13 7 ZW 1019,6 57 0 0,0
20.06.2018 02:00:00 18,1 15,2 17,1 23,4 18,8 9 5 18 10 Z 1020,0 60 0 0,0
20.06.2018 01:00:00 18,6 15,5 15,5 23,6 18,8 8 4 18 10 Z 1020,0 60 0 0,0
20.06.2018 00:00:00 18,5 15,6 15,7 23,9 18,8 5 3 8 4 Z 1020,1 60 0 0,0
19.06.2018 23:00:00 19,9 15,9 16,5 24,2 18,8 3 2 12 7 WZW 1020,0 60 0 0,0
19.06.2018 22:00:00 21,5 15,6 19,1 24,4 18,8 9 5 14 8 ZW 1019,4 39 4 0,0
19.06.2018 21:00:00 25,3 15,6 25,4 24,5 18,8 10 5 21 11 WZW 1019,2 60 60 0,0
19.06.2018 20:00:00 26,9 15,3 27,1 24,6 18,8 14 7 26 14 WZW 1019,2 60 60 0,0
19.06.2018 19:00:00 27,8 16,1 30,7 24,4 18,8 14 7 28 15 W 1019,2 58 60 0,0
19.06.2018 18:00:00 27,7 15,4 31,4 24,0 18,8 15 8 27 14 W 1019,5 54 60 0,0
19.06.2018 17:00:00 27,6 15,3 32,0 23,5 18,8 13 7 29 16 W 1019,9 59 60 0,0
19.06.2018 16:00:00 26,9 14,6 31,9 22,8 18,8 16 9 30 16 W 1020,3 60 60 0,0
19.06.2018 15:00:00 26,9 15,0 31,5 22,2 18,8 14 8 30 16 WNW 1020,8 57 60 0,0
19.06.2018 14:00:00 25,9 15,3 29,9 21,5 18,8 16 8 36 19 WNW 1021,4 57 57 0,0
19.06.2018 13:00:00 25,0 15,3 24,3 20,9 18,8 21 11 35 19 WNW 1021,8 60 58 0,0
19.06.2018 12:00:00 23,7 15,5 26,9 20,4 18,8 21 11 35 19 W 1022,4 58 60 0,0
19.06.2018 11:00:00 22,5 15,1 25,1 20,1 18,8 21 11 36 19 W 1022,8 53 60 0,0
19.06.2018 10:00:00 21,4 16,4 20,6 20,0 18,8 22 12 38 20 W 1023,3 46 53 0,0
19.06.2018 09:00:00 19,6 16,1 20,2 20,0 18,8 21 11 34 19 W 1023,8 37 51 0,0
19.06.2018 08:00:00 19,1 15,8 18,1 20,1 18,8 18 10 37 20 W 1023,9 36 60 0,0
19.06.2018 07:00:00 18,1 15,7 17,1 20,2 18,8 20 11 35 19 W 1024,0 24 25 0,0
19.06.2018 06:00:00 17,7 15,7 17,0 20,3 18,8 19 10 37 20 W 1023,8 51 0 0,0
19.06.2018 05:00:00 17,6 15,6 16,9 20,5 18,8 14 8 26 14 W 1023,8 47 0 0,0
19.06.2018 04:00:00 17,6 15,2 16,9 20,6 18,8 16 9 29 16 W 1023,7 50 0 0,0
19.06.2018 03:00:00 17,7 14,8 16,8 20,8 18,8 16 9 26 14 W 1023,9 57 0 0,0
19.06.2018 02:00:00 17,7 15,0 16,8 21,0 18,8 14 7 30 16 W 1024,1 52 0 0,0
19.06.2018 01:00:00 17,9 14,8 17,0 21,2 18,8 16 8 29 15 W 1024,3 56 0 0,0
19.06.2018 00:00:00 18,5 14,6 17,6 21,4 18,8 16 9 29 16 W 1024,6 60 0 0,0
18.06.2018 23:00:00 19,0 14,7 17,8 21,5 18,8 16 9 30 16 W 1024,4 59 0 0,0
18.06.2018 22:00:00 19,2 14,5 18,1 21,7 18,8 13 7 31 17 W 1023,8 60 0 0,0
18.06.2018 21:00:00 20,9 13,8 20,1 21,8 18,8 18 10 40 22 WNW 1023,4 59 43 0,0
18.06.2018 20:00:00 22,5 13,6 22,2 21,7 18,8 26 14 44 24 NW 1023,1 60 48 0,0
18.06.2018 19:00:00 22,5 12,7 22,5 21,6 18,8 28 15 47 26 WNW 1023,2 42 60 0,0
18.06.2018 18:00:00 23,6 13,7 23,4 21,3 18,8 27 15 46 25 WNW 1023,4 50 54 0,0
18.06.2018 17:00:00 23,3 14,3 23,1 20,9 18,9 29 15 53 28 WNW 1023,8 57 50 0,0
18.06.2018 16:00:00 22,9 14,5 25,7 20,5 18,8 29 16 48 26 WNW 1024,0 20 58 0,0
18.06.2018 15:00:00 21,8 14,7 21,8 20,3 18,8 29 15 47 25 WNW 1024,3 20 32 0,0
18.06.2018 14:00:00 19,6 13,5 19,6 20,2 18,8 26 14 42 23 W 1025,0 20 0 0,0
18.06.2018 13:00:00 18,7 12,7 19,8 20,0 18,8 24 13 56 30 W 1025,5 60 6 0,0
18.06.2018 12:00:00 18,7 12,7 19,2 19,8 18,8 30 16 50 27 WNW 1025,4 30 5 0,0
18.06.2018 11:00:00 18,5 12,0 19,9 19,6 18,8 30 16 60 33 WNW 1025,3 10 43 0,0
18.06.2018 10:00:00 18,0 11,5 19,1 19,5 18,8 40 21 59 32 WNW 1024,9 8 60 0,0
18.06.2018 09:00:00 17,1 11,6 17,0 19,6 18,9 35 19 54 29 WNW 1024,9 9 60 0,0
18.06.2018 08:00:00 15,7 11,9 15,0 19,7 18,9 28 15 46 25 W 1024,9 10 60 0,0
18.06.2018 07:00:00 15,0 12,1 14,5 19,9 18,8 27 15 49 26 WNW 1024,7 4,2 25 0,0
18.06.2018 06:00:00 15,4 12,3 14,7 20,0 18,8 29 16 50 27 WNW 1024,1 47 0 0,0
18.06.2018 05:00:00 16,2 12,4 15,5 20,2 18,8 22 12 50 27 W 1023,9 55 0 0,0
18.06.2018 04:00:00 16,7 12,8 16,0 20,4 18,8 27 15 47 25 W 1023,5 60 0 0,0
18.06.2018 03:00:00 17,8 12,7 17,1 20,5 18,8 27 14 42 23 W 1023,7 20 0 0,0
18.06.2018 02:00:00 18,3 13,2 16,4 20,7 18,8 23 12 37 20 W 1023,7 60 0 0,0
18.06.2018 01:00:00 17,6 13,1 16,9 20,8 18,9 11 6 21 12 W 1024,0 60 0 0,0
18.06.2018 00:00:00 18,4 12,6 17,6 21,0 18,8 12 7 29 15 W 1024,0 60 0 0,0
17.06.2018 23:00:00 18,7 12,7 17,3 21,2 18,8 15 8 30 16 W 1023,8 60 0 0,0
17.06.2018 22:00:00 18,9 12,4 17,8 21,3 18,8 20 11 35 19 W 1023,2 60 0 0,0
17.06.2018 21:00:00 19,7 12,5 18,9 21,4 18,8 18 10 40 21 W 1022,8 40 55 0,0
17.06.2018 20:00:00 21,1 12,5 21,2 21,5 18,8 25 13 59 32 W 1022,4 20 60 0,0
17.06.2018 19:00:00 21,6 12,2 21,5 21,5 18,8 27 15 46 25 WNW 1022,1 38 18 0,0
17.06.2018 18:00:00 20,2 12,2 20,7 21,4 18,8 28 15 48 26 W 1022,4 40 0 0,0
17.06.2018 17:00:00 20,2 12,7 21,2 21,3 18,8 27 14 45 24 WNW 1022,7 37 0 0,0
17.06.2018 16:00:00 19,8 12,1 21,2 21,1 18,8 29 15 48 26 WNW 1022,7 27 0 0,0
17.06.2018 15:00:00 20,0 12,0 21,7 20,9 18,8 31 17 49 27 WNW 1022,5 30 7 0,0
17.06.2018 14:00:00 20,7 12,1 23,0 20,7 18,9 31 17 49 26 WNW 1022,5 22 42 0,0
17.06.2018 13:00:00 19,8 11,6 21,5 20,4 18,8 32 18 52 28 WNW 1022,7 28 10 0,0
17.06.2018 12:00:00 19,1 11,1 20,0 20,3 18,8 29 16 49 27 WNW 1022,9 34 34 0,0
17.06.2018 11:00:00 18,9 11,2 19,9 20,1 18,8 31 17 57 31 W 1022,9 17 52 0,0
17.06.2018 10:00:00 17,9 11,7 18,5 20,1 18,8 27 15 45 25 W 1023,2 20 55 0,0
17.06.2018 09:00:00 16,7 12,6 16,9 20,2 18,8 24 13 41 22 W 1023,2 27 46 0,0
17.06.2018 08:00:00 15,8 12,2 15,0 20,4 18,8 26 14 42 23 W 1022,7 13 60 0,0
17.06.2018 07:00:00 15,0 12,3 13,8 20,5 18,8 22 12 37 20 W 1022,0 18 22 0,0
17.06.2018 06:00:00 14,8 12,7 13,9 20,7 18,8 16 9 32 17 W 1021,5 36 0 0,0
17.06.2018 05:00:00 15,1 13,0 14,2 20,9 18,8 18 10 34 18 W 1021,2 34 0 0,0
17.06.2018 04:00:00 15,4 13,4 14,4 21,2 18,8 15 8 32 17 W 1021,0 36 0 0,0
17.06.2018 03:00:00 15,8 13,6 14,8 21,4 18,8 16 8 35 19 W 1021,1 20 0 0,0
17.06.2018 02:00:00 16,1 13,8 15,1 21,6 18,8 13 7 29 15 W 1021,1 38 0 0,0
17.06.2018 01:00:00 16,9 14,0 15,9 21,8 18,8 18 10 30 16 W 1020,9 20 0 0,0
17.06.2018 00:00:00 17,3 14,4 16,3 22,1 18,8 19 10 28 15 W 1020,8 57 0 0,0
16.06.2018 23:00:00 17,7 14,2 16,5 22,3 18,8 14 7 32 17 WNW 1020,5 60 0 0,0
16.06.2018 22:00:00 18,6 13,9 17,5 22,5 18,8 18 10 34 18 W 1019,5 60 7 0,0
16.06.2018 21:00:00 20,0 14,1 19,2 22,6 18,8 21 11 42 23 W 1018,7 42 53 0,0
16.06.2018 20:00:00 21,2 14,1 21,0 22,7 18,8 23 12 42 23 W 1018,2 29 48 0,0
16.06.2018 19:00:00 21,5 14,4 21,8 22,6 18,8 23 12 44 24 W 1017,8 46 12 0,0
16.06.2018 18:00:00 22,1 14,5 23,9 22,5 18,8 26 14 43 23 WNW 1017,6 24 24 0,0
16.06.2018 17:00:00 22,5 14,6 24,2 22,2 18,8 26 14 45 25 W 1017,6 24 18 0,0
16.06.2018 16:00:00 22,7 14,8 24,6 21,8 18,8 27 14 47 25 W 1017,8 21 27 0,0
16.06.2018 15:00:00 22,9 15,2 26,3 21,4 18,8 26 14 45 24 WNW 1017,9 21 53 0,0
16.06.2018 14:00:00 22,9 15,5 24,9 21,0 18,8 24 13 44 24 WNW 1018,1 23 56 0,0
16.06.2018 13:00:00 21,1 14,7 22,1 20,7 18,8 26 14 42 23 WNW 1018,4 26 0 0,0
16.06.2018 12:00:00 20,4 15,6 22,8 20,5 18,8 27 15 41 22 W 1018,0 21 23 0,0
16.06.2018 11:00:00 20,6 16,2 22,3 20,2 18,8 24 13 43 23 W 1017,6 20 53 0,0
16.06.2018 10:00:00 19,6 16,6 19,2 20,2 18,8 22 12 36 19 W 1017,5 20 34 0,0
16.06.2018 09:00:00 18,1 16,6 17,5 20,2 18,8 18 10 29 16 W 1017,6 20 13 0,0
16.06.2018 08:00:00 17,4 16,4 16,5 20,3 18,8 16 9 34 19 W 1017,9 19 0 0,0
16.06.2018 07:00:00 16,9 16,1 16,2 20,4 18,8 19 11 31 17 W 1017,6 13 2 0,2
16.06.2018 06:00:00 17,0 15,9 15,9 20,5 18,8 21 11 35 19 W 1017,2 18 0 0,0
16.06.2018 05:00:00 16,8 16,0 16,2 20,6 18,8 18 10 32 18 W 1017,0 10 0 0,2
16.06.2018 04:00:00 16,8 16,0 16,2 20,8 18,8 17 9 34 18 W 1017,6 5 0 0,6
16.06.2018 03:00:00 17,0 15,9 16,3 20,9 18,7 16 9 27 14 W 1017,8 14 0 0,2
16.06.2018 02:00:00 17,4 15,2 16,3 21,0 18,8 18 10 37 20 W 1018,0 20 0 0,2
16.06.2018 01:00:00 17,6 14,9 16,2 21,2 18,8 17 9 29 15 W 1018,1 20 0 0,0
16.06.2018 00:00:00 17,7 15,0 16,3 21,3 18,8 16 9 28 15 W 1017,9 15 0 0,0
15.06.2018 23:00:00 18,7 14,2 18,3 21,5 18,8 19 11 35 19 W 1018,0 20 0 0,0
15.06.2018 22:00:00 19,2 14,2 18,7 21,6 18,8 20 11 37 20 W 1017,6 20 0 0,0
15.06.2018 21:00:00 19,6 14,0 19,3 21,8 18,8 20 11 41 22 W 1017,1 53 0 0,0
15.06.2018 20:00:00 20,2 13,2 19,9 21,8 18,8 26 14 44 24 WNW 1017,0 58 0 0,0
15.06.2018 19:00:00 20,9 13,1 20,8 21,7 18,8 20 11 39 21 WNW 1016,6 33 0 0,0
15.06.2018 18:00:00 21,6 13,2 21,7 21,5 18,8 23 13 46 25 WNW 1016,3 23 26 0,0
15.06.2018 17:00:00 22,3 13,4 23,4 21,2 18,8 26 14 46 25 WNW 1016,2 19 27 0,0
15.06.2018 16:00:00 21,7 13,6 24,6 20,9 18,8 27 14 47 26 WNW 1016,6 20 50 0,0
15.06.2018 15:00:00 20,9 14,1 20,5 20,8 18,8 24 13 43 23 WNW 1017,0 24 2 0,0
15.06.2018 14:00:00 18,8 13,0 19,3 20,6 18,8 24 13 49 26 WNW 1017,4 24 3 0,0
15.06.2018 13:00:00 19,5 13,4 21,9 20,4 18,8 26 14 42 23 WNW 1017,3 28 5 0,0
15.06.2018 12:00:00 19,9 13,6 20,6 20,2 18,7 25 14 42 23 W 1017,2 30 22 0,0
15.06.2018 11:00:00 18,6 13,9 19,3 20,2 18,8 23 13 42 23 W 1017,5 34 1 0,0
15.06.2018 10:00:00 17,7 13,8 18,1 20,2 18,7 27 15 41 22 W 1017,6 36 0 0,0
15.06.2018 09:00:00 17,1 13,8 16,3 20,2 18,7 20 11 33 18 W 1017,5 37 0 0,0
15.06.2018 08:00:00 16,0 13,8 15,6 20,4 18,7 15 8 26 14 W 1017,2 32 0 0,0
15.06.2018 07:00:00 16,0 13,5 15,4 20,6 18,8 14 7 29 16 W 1016,9 35 0 0,0
15.06.2018 06:00:00 16,1 13,4 15,5 20,7 18,7 15 8 32 18 W 1016,9 38 0 0,0
15.06.2018 05:00:00 16,3 13,6 15,6 20,9 18,7 19 11 32 17 W 1016,9 36 0 0,0
15.06.2018 04:00:00 16,5 13,6 15,8 21,1 18,7 19 11 41 22 W 1017,1 35 0 0,0
15.06.2018 03:00:00 16,5 13,8 14,9 21,3 18,7 19 10 31 17 W 1017,2 32 0 0,0
15.06.2018 02:00:00 15,8 13,8 15,0 21,6 18,8 16 9 27 15 W 1017,5 26 0 0,0

tt = temperatuur
td = dauwpunt
tt 5cm = temperatuur 5cm
tt -20cm = temperatuur -20cm
tt -100cm = temperatuur -100cm
ff = windsnelheid
fx = windstoten
dd = windrichting
ppp = luchtdruk
vv = zicht
sd = Zonneschijnduur
rr = neerslag

Weerstations in de omgeving